sat.trackr.live / text

‹ back to catalog

STARLINK-32142

NORAD 60291 · 2024-132P

PAYLOAD ACTIVE UNKNOWN

§ Identity

Operator
Country
US
Launch date
2024-07-28
Launch site
AFETR
Launch vehicle
Mass (kg)
RCS (m²)

Purposes: comms

External: N2YO · Heavens-Above · Gunter

§ Orbital elements

Epoch: 2026-09-21T14:00:17.974368Z

Period
93.85 min
Inclination
53.1594°
Eccentricity
0.0001244
Mean motion
15.34383436 rev/d
Perigee alt
461.9 km
Apogee alt
463.6 km
Semi-major
6,840.9 km
B*
2.9703e-5
RAAN
220.3219°
Arg perigee
94.9544°
Mean anomaly
265.1601°
Rev number
12,158

§ Raw data

STARLINK-321421 60291U 24132P   26264.58354137  .00000627  00000+0  29703-4 0  99952 60291  53.1594 220.3219 0001244  94.9544 265.1601 15.34383436121580

JSON: /api/v1/satellites/60291 · /tle

For live sub-satellite position, see the globe view (requires WebGL).

§ Visibility from observer

Set your observer location to see the next 7 days of passes ≥ 10°. The values pass through the URL so the page stays shareable.

No JS? Fill the form by hand. The geolocation button needs JavaScript.